User: anonymous   Login
Location: Allos
(44.2333°N, 6.6333°E)
Time: 17:16:29
(UTC+00:00)
Language:

HJ-1A - Orbit

View from above orbital plane
View from above orbital plane
View from above satellite
View from above satellite

Ground track
Ground track

The orbit data is extracted from the following two-line orbital elements,

1 33320U 08041A   21173.05117759  .00000128  00000-0  24736-4 0  9990
2 33320  97.7219 217.0691 0020385 327.2318  32.7619 14.77645663689165
Epoch (UTC): 22 June 2021 01:13:41
Eccentricity: 0.0020385
inclination: 97.7219°
perigee height: 622 km
apogee height: 651 km
right ascension of ascending node: 217.0691°
argument of perigee: 327.2318°
revolutions per day: 14.77645663
mean anomaly at epoch: 32.7619°
orbit number at epoch: 68916

The dashed part of the orbit path shows where the satellite is in the earth's shadow,  

DLR